SWR41G KLAX-LSZH

Flight info

Callsign SWR41G
Flight time N/A
Altitude 35000
Route OSHNN1 BEALE Q842 WINEN DCT TCH DCT BIL DCT GGW DCT DURUR DCT 55N097W 57N090W DCT KELMU DCT FEDDY DCT IKMAN/M084F350 DCT EMBOK DCT 64N050W 64N040W 62N030W 59N020W DCT AGORI/N0480F350 DCT OSBOX DCT MIMKU DCT MAKUX DCT SOSIM L15 KEPAD L151 MID UL612 VEULE DCT TEPRI UN491 POGZI DCT GELTA DCT MANAG DCT PEVIT DCT BLM
Aircraft B77W/H-SDE1E2E3FGHIJ2J3J4J5M1RWXY/LB1D1

Departure

Time 2026-04-24 05:28
Airport Los Angeles International Airport (KLAX)

Arrival

Time N/A
Airport Zürich Airport (LSZH)
Time Latitude Longitude Altitude Speed Heading
2026-04-24 04:42 33.94020 -118.41086 127 ft 0 kts 83°
2026-04-24 05:08 33.94019 -118.41092 106 ft 3 kts 83°
2026-04-24 05:08 33.94016 -118.41124 126 ft 4 kts 83°
2026-04-24 05:09 33.94013 -118.41153 126 ft 3 kts 83°
2026-04-24 05:09 33.94015 -118.41179 125 ft 4 kts 140°
2026-04-24 05:09 33.94038 -118.41188 125 ft 4 kts 175°
2026-04-24 05:09 33.94049 -118.41189 125 ft 0 kts 173°
2026-04-24 05:16 33.94038 -118.41188 125 ft 3 kts 173°
2026-04-24 05:17 33.94017 -118.41185 125 ft 3 kts 173°
2026-04-24 05:17 33.93995 -118.41181 126 ft 4 kts 173°
2026-04-24 05:17 33.93969 -118.41178 126 ft 4 kts 173°
2026-04-24 05:17 33.93944 -118.41174 128 ft 4 kts 173°
2026-04-24 05:18 33.93918 -118.41170 128 ft 4 kts 173°
2026-04-24 05:18 33.93893 -118.41167 127 ft 4 kts 173°
2026-04-24 05:18 33.93858 -118.41161 127 ft 5 kts 173°
2026-04-24 05:18 33.93822 -118.41156 127 ft 5 kts 172°
2026-04-24 05:19 33.93789 -118.41135 128 ft 6 kts 134°
2026-04-24 05:19 33.93773 -118.41044 129 ft 19 kts 87°
2026-04-24 05:19 33.93789 -118.40882 130 ft 19 kts 82°
2026-04-24 05:19 33.93806 -118.40721 129 ft 19 kts 83°
2026-04-24 05:20 33.93822 -118.40561 127 ft 19 kts 83°
2026-04-24 05:20 33.93839 -118.40400 126 ft 19 kts 83°
2026-04-24 05:20 33.93855 -118.40239 129 ft 19 kts 83°
2026-04-24 05:20 33.93872 -118.40077 129 ft 19 kts 83°
2026-04-24 05:21 33.93888 -118.39916 127 ft 19 kts 83°
2026-04-24 05:21 33.93904 -118.39755 129 ft 19 kts 83°
2026-04-24 05:21 33.93921 -118.39591 130 ft 19 kts 83°
2026-04-24 05:21 33.93937 -118.39432 127 ft 19 kts 83°
2026-04-24 05:22 33.93953 -118.39270 126 ft 19 kts 83°
2026-04-24 05:22 33.93969 -118.39112 126 ft 19 kts 83°
2026-04-24 05:22 33.93986 -118.38950 127 ft 19 kts 83°
2026-04-24 05:22 33.94002 -118.38789 128 ft 19 kts 83°
2026-04-24 05:23 33.94019 -118.38628 127 ft 19 kts 83°
2026-04-24 05:23 33.94035 -118.38465 127 ft 19 kts 83°
2026-04-24 05:23 33.94052 -118.38303 127 ft 19 kts 83°
2026-04-24 05:23 33.94068 -118.38144 130 ft 19 kts 83°
2026-04-24 05:24 33.94073 -118.38060 130 ft 0 kts 96°
2026-04-24 05:24 33.94072 -118.38053 130 ft 4 kts 104°
2026-04-24 05:25 33.94053 -118.38023 129 ft 6 kts 140°
2026-04-24 05:25 33.94002 -118.38012 128 ft 8 kts 205°
2026-04-24 05:25 33.93984 -118.38061 126 ft 0 kts 258°
2026-04-24 05:27 33.93975 -118.38123 130 ft 20 kts 261°
2026-04-24 05:27 33.93925 -118.38613 126 ft 104 kts 263°
2026-04-24 05:27 33.93783 -118.39826 202 ft 181 kts 260°
2026-04-24 05:28 33.93587 -118.41368 1194 ft 188 kts 261°
2026-04-24 05:28 33.93410 -118.42996 2093 ft 195 kts 264°
2026-04-24 05:28 33.93261 -118.44590 2751 ft 190 kts 264°
2026-04-24 05:28 33.93040 -118.46188 2968 ft 203 kts 243°
2026-04-24 05:29 33.92136 -118.47586 2941 ft 226 kts 230°
2026-04-24 05:29 33.91069 -118.49125 3125 ft 250 kts 231°
2026-04-24 05:29 33.89911 -118.50762 3574 ft 262 kts 230°
2026-04-24 05:29 33.88713 -118.52450 4246 ft 268 kts 230°
2026-04-24 05:30 33.87512 -118.54151 4964 ft 271 kts 230°
2026-04-24 05:30 33.86059 -118.55589 5542 ft 277 kts 202°
2026-04-24 05:30 33.84165 -118.55971 6166 ft 281 kts 173°
2026-04-24 05:30 33.82252 -118.55507 6741 ft 283 kts 167°